Miscellaneous Local Product
Issued by NWS Hastings, NE

Home | Current Version | Previous Version | Text Only | Print | Product List | Glossary On
Versions: 1 2 3 4 5 6 7 8 9 10 11 12 13 14 15 16 17 18 19 20 21 22 23 24 25 26 27 28 29 30 31 32 33 34 35 36 37 38 39 40 41 42 43 44 45 46 47 48 49 50
000
AXUS43 KGID 291802
MISGRI

GID CWA HOURLY WEATHER ROUNDUP
NATIONAL WEATHER SERVICE HASTINGS NE
100 PM CDT SAT AUG 29 2015

NOTE: "FAIR" INDICATES FEW OR NO CLOUDS BELOW 12,000 FEET WITH NO
SIGNIFICANT WEATHER AND/OR OBSTRUCTIONS TO VISIBILITY.

...SOUTH CENTRAL NEBRASKA...

CITY           SKY/WX    TMP DP  RH WIND       PRES   REMARKS
GRAND ISLAND   SUNNY     77  61  57 N8        30.10F
HASTINGS       SUNNY     76  65  68 NE6       30.10F
KEARNEY        SUNNY     79  63  57 NW7       30.11S
ORD            SUNNY     81  64  56 NE5       30.09F
YORK           SUNNY     70  63  78 CALM      30.10F
AURORA         SUNNY     74  64  73 N3        30.10F
LEXINGTON      SUNNY     81  64  56 CALM      30.13S
HOLDREGE       SUNNY     76  63  63 NW5       30.12F
HEBRON         SUNNY     70  59  66 N9        30.09S

...NEBRASKA PANHANDLE...

CITY           SKY/WX    TMP DP  RH WIND       PRES   REMARKS
CHADRON        SUNNY     93  45  19 S16G22    30.08F HAZE
ALLIANCE       SUNNY     89  41  18 SW14G20   30.14F
SCOTTSBLUFF    SUNNY     83  57  41 E9        30.14F
SIDNEY         SUNNY     88  38  17 S12G21    30.20F

...WESTERN AND NORTH CENTRAL NEBRASKA...

CITY           SKY/WX    TMP DP  RH WIND       PRES   REMARKS
VALENTINE      PTSUNNY   83  57  41 SW8       30.07F
AINSWORTH      PTSUNNY   84  63  49 S5        30.09F
ONEILL         SUNNY     80  65  59 S7        30.08F
BROKEN BOW     MOSUNNY   81  62  52 CALM      30.12F
IMPERIAL       SUNNY     88  55  32 W9        30.15F
NORTH PLATTE   MOSUNNY   84  62  47 CALM      30.12F
MCCOOK         SUNNY     86  57  37 VRB6      30.13F

...EASTERN NEBRASKA...

CITY           SKY/WX    TMP DP  RH WIND       PRES   REMARKS
NORFOLK        SUNNY     73  63  70 N5        30.08F
SO SIOUX CITY  CLOUDY    67  59  75 W3        30.08F
TEKAMAH        CLOUDY    65  60  84 N3        30.09F
COLUMBUS       SUNNY    N/A N/A N/A CALM      30.09F
ALBION         SUNNY     76  63  64 CALM      30.09F
OMAHA EPPLEY   CLOUDY    65  60  84 N6        30.08F
OFFUTT AFB     CLOUDY    65  59  83 N7        30.08S
MILLARD        CLOUDY    66  61  84 CALM      30.09S
LINCOLN        CLOUDY    67  60  78 NE7       30.10S
NEBRASKA CITY  CLOUDY    63  62  98 NE6       30.09R FOG
BEATRICE       CLOUDY    64  60  88 N8        30.09F
FALLS CITY     CLOUDY    68  63  84 N9        30.06S

...NORTHERN KANSAS...

CITY           SKY/WX    TMP DP  RH WIND       PRES   REMARKS
GOODLAND       SUNNY     85  44  23 VRB5      30.19F
HILL CITY      SUNNY     85  59  41 N6        30.12F
NORTON         CLEAR     81  54  39 N3        30.11F
PHILLIPSBURG   SUNNY     84  61  45 NW5       30.10F
SMITH CENTER   SUNNY     79  61  53 NE7       30.10F
HAYS           SUNNY     82  57  42 NE14G20   30.10F
RUSSELL        SUNNY     80  60  50 N14G21    30.08F
CONCORDIA      CLOUDY    66  60  81 NE7       30.10F
SALINA         CLOUDY    71  62  73 N10       30.09F
TOPEKA         CLOUDY    70  65  84 N5        30.05S



USA.gov is the U.S. government's official web portal to all federal, state and local government web resources and services.